Location: Doverdale
(52.2833°N, 2.2000°W)
Time: 02:33:16
(UTC+00:00)

Cosmos 1980 Rocket - Pass Details

Date: 08 March 2021
Orbit: 828 x 851 km, 71.0° (Epoch: 15 April)

Event Time Altitude Azimuth Distance (km) Brightness Sun altitude
Rises 00:54:02 0° 329° (NNW) 3,430 5.9 -42.1°
Reaches altitude 10° 00:56:34 10° 335° (NNW) 2,491 5.1 -42.0°
Enters shadow 00:57:34 15° 338° (NNW) 2,136 4.7 -41.9°
